Wind_Speed
5 6 6 8 9 8 6 5 4 3 2 1 1 1 1 1 1 1 1 2 2 2 2 3 3 3 3 4 4 4 4 5 5 5 5 6 6 7 7 8 8 8 8
5 6 6 7 8 8 7 5 4 3 2 1 0 0 1 2 2 2 2 1 1 1 2 2 2 2 3 4 4 4 4 4 5 5 6 6 6 6 7 7 8 8 8
4 6 6 6 7 8 7 6 5 3 2 2 1 1 2 2 2 2 2 2 2 1 1 1 2 2 2 3 3 3 3 4 5 5 6 6 6 6 7 7 7 7 7
4 5 6 6 7 7 7 6 5 4 3 3 2 2 2 2 3 3 3 2 2 1 1 1 1 2 2 2 3 3 3 4 4 5 5 6 6 6 6 7 7 7 7
3 4 5 7 7 7 7 7 5 5 4 3 3 2 3 3 3 3 3 3 2 1 1 1 1 1 1 2 2 3 3 4 4 4 5 6 6 6 6 7 7 7 6
2 4 6 7 8 8 8 7 6 5 5 4 3 3 3 4 4 4 3 3 2 2 1 1 1 1 1 1 2 2 3 3 3 4 5 6 6 6 6 7 7 6 6
2 2 4 5 7 8 7 7 7 6 6 5 4 3 3 3 4 4 3 3 3 2 2 2 1 1 1 1 2 2 2 2 3 4 5 5 5 5 6 6 6 5 5
1 2 4 5 6 8 8 8 8 8 7 6 5 4 4 4 4 4 4 3 3 2 2 2 1 0 1 1 1 1 1 1 2 3 4 4 5 5 5 6 6 5 5
1 1 4 5 7 8 9 9 9 9 8 7 6 5 4 4 4 4 4 4 3 3 2 2 1 0 1 1 1 1 1 1 2 3 4 4 4 4 5 5 5 5 5
3 2 3 5 6 8 9 10 10 10 9 8 7 6 5 4 4 4 4 4 3 3 3 2 1 1 1 2 1 2 2 2 3 3 4 4 4 4 4 5 5 4 4
4 3 3 4 6 7 10 11 11 11 11 10 8 6 5 5 4 4 4 4 4 3 3 3 2 2 2 2 2 2 2 3 3 3 4 4 4 4 4 4 4 4 5
6 4 3 5 6 7 10 11 12 12 11 10 9 7 6 5 4 3 3 3 3 3 3 2 2 2 3 3 3 2 2 2 2 2 3 4 4 5 4 4 4 4 4
8 6 5 5 7 8 10 12 13 12 12 11 10 8 7 5 4 3 3 3 3 3 2 2 2 2 3 3 3 3 3 2 2 2 3 3 4 5 4 4 4 4 4
9 8 7 6 6 7 9 12 12 13 12 12 11 10 8 6 5 4 3 3 3 3 2 2 2 2 2 3 3 3 2 2 2 2 3 3 4 4 4 4 4 4 4
9 8 8 6 6 6 7 10 11 12 13 13 12 11 9 8 6 5 4 4 3 3 3 2 2 2 2 2 2 2 2 2 2 2 3 3 4 4 4 3 4 4 4
10 9 8 6 4 5 6 8 11 13 14 13 13 12 10 9 7 5 4 3 3 2 2 2 2 2 2 2 2 2 2 3 2 2 2 3 3 3 4 3 3 3 3
11 10 9 6 4 3 4 7 11 13 14 14 14 13 11 10 8 6 5 4 3 3 2 3 2 2 2 2 3 3 3 3 2 2 2 2 2 3 3 3 3 3 3
11 10 10 8 6 3 3 5 9 13 14 15 14 14 12 11 9 7 6 5 4 3 3 3 3 3 3 3 3 3 3 3 2 2 2 2 3 3 3 3 3 3 3
11 10 10 9 6 5 3 5 8 11 13 15 14 14 12 11 9 8 6 6 5 4 4 4 3 3 3 3 2 3 3 3 3 3 3 3 3 2 2 3 3 3 3
11 11 10 9 7 5 4 4 7 9 13 13 13 14 13 12 10 8 7 6 6 6 5 5 4 4 4 3 3 3 3 3 3 3 3 3 3 3 3 3 3 4 4
11 10 10 9 7 5 4 4 6 8 12 13 13 14 14 12 11 9 8 7 7 7 7 6 6 6 5 5 5 5 5 4 4 3 4 4 3 3 3 3 3 4 4
10 10 10 9 7 5 4 3 5 7 10 11 13 14 14 13 12 11 9 9 8 8 8 7 7 7 7 7 7 6 6 6 6 5 5 5 5 4 4 4 4 4 4
10 10 10 8 7 6 5 2 4 7 9 10 12 14 14 13 13 11 10 10 9 9 9 9 9 9 9 9 8 8 7 7 7 6 6 6 5 6 6 6 6 5 6
9 9 10 9 7 6 4 3 3 7 9 10 12 13 13 13 12 12 11 11 10 11 10 10 10 10 10 10 10 9 9 9 8 8 8 8 8 8 8 7 7 7 7
9 9 10 9 7 6 5 4 5 7 9 10 10 11 12 12 12 13 12 12 12 12 12 11 11 11 11 11 11 11 11 10 10 9 9 9 9 10 9 9 8 9 10
10 10 10 8 7 6 5 4 5 6 8 9 9 10 11 12 13 13 13 13 13 13 13 12 11 12 12 12 12 12 12 12 11 11 11 11 11 11 11 11 12 12 12
Wind_Direction
126 132 144 152 153 152 152 155 147 140 129 110 84 59 29 14 19 31 49 58 61 67 71 77 78 78 84 83 83 85 87 92 101 100 107 110 113 112 112 115 114 119 121
130 145 155 162 164 161 160 163 163 171 165 166 196 340 347 338 351 355 1 16 30 41 50 61 68 70 77 79 84 87 91 102 108 109 114 117 122 120 119 119 117 121 120
145 152 165 172 174 168 169 176 179 184 203 225 235 269 301 315 332 331 336 341 350 6 27 40 52 64 73 80 85 88 96 109 116 118 122 124 128 125 125 125 122 124 122
150 160 168 177 176 177 180 184 193 206 215 230 242 270 288 307 322 326 324 322 325 337 4 21 36 52 75 77 85 90 105 113 121 121 128 130 132 129 128 130 128 126 126
149 173 183 187 183 186 191 195 200 208 219 234 246 268 288 301 313 322 320 308 304 310 336 353 11 31 57 71 82 97 114 118 122 120 125 131 133 133 134 136 134 131 130
132 181 189 190 192 194 195 197 198 204 220 234 244 264 283 294 301 311 312 303 296 300 313 334 354 10 45 70 88 108 120 121 118 125 126 130 135 138 140 143 145 142 137
102 165 192 200 201 202 200 201 206 211 221 231 241 259 274 292 300 304 306 301 294 289 293 314 320 340 32 71 93 113 107 120 126 134 135 135 139 143 147 151 152 150 146
82 175 194 200 206 208 208 210 213 216 222 231 238 251 265 279 288 294 302 297 286 279 279 292 304 313 70 93 109 124 133 129 134 135 143 149 153 155 153 156 157 158 156
7 218 210 216 220 220 215 216 219 221 224 229 235 246 257 267 280 288 290 288 283 279 279 286 283 227 134 132 142 149 148 145 141 148 153 160 164 165 160 160 168 168 166
356 298 230 220 227 225 222 221 222 225 227 229 232 242 251 261 270 277 277 282 281 279 278 277 266 212 159 158 166 165 159 154 148 152 164 171 174 174 175 171 175 183 184
348 321 250 234 228 226 224 223 224 226 229 228 230 237 244 253 257 270 273 279 276 273 273 267 250 216 180 172 174 171 167 166 153 153 167 174 182 187 188 183 182 184 189
352 326 281 257 246 235 228 224 224 226 227 227 229 231 235 243 250 266 273 277 273 270 273 263 241 215 192 185 184 179 184 184 175 174 182 189 193 194 195 194 184 187 197
358 338 313 272 254 240 229 224 224 225 225 225 226 226 230 237 238 255 265 264 266 270 270 252 237 217 203 199 193 190 198 201 191 190 188 192 196 200 202 200 194 197 206
359 347 332 291 268 252 237 224 224 226 225 222 221 222 228 233 231 246 259 259 261 263 263 244 240 221 208 201 205 207 197 192 188 191 195 196 199 200 207 215 212 214 224
357 350 338 313 279 262 244 222 220 220 218 217 216 220 225 230 233 243 253 252 253 254 254 241 244 238 207 199 204 213 216 198 186 198 199 201 202 202 207 210 219 226 237
1 353 342 325 308 271 242 224 215 215 214 214 214 218 222 227 231 237 236 247 262 251 244 235 232 218 210 209 208 209 213 195 175 181 185 193 192 196 206 208 213 218 238
356 355 349 340 333 285 242 224 211 210 213 214 214 217 221 223 224 229 230 243 248 236 229 212 206 203 192 196 201 201 203 190 177 185 185 186 182 189 203 211 214 222 238
350 351 348 347 341 315 257 214 210 211 213 214 215 215 218 220 219 218 219 224 230 227 219 209 198 201 197 197 199 199 203 195 196 195 191 181 187 199 203 210 220 230 236
348 348 344 344 335 322 282 233 220 217 215 213 215 214 212 210 209 211 212 218 223 221 218 211 202 205 206 199 192 191 191 194 198 197 202 199 199 206 216 224 236 237 238
349 345 342 339 327 314 291 246 227 223 214 211 210 210 210 208 205 207 209 211 216 218 219 217 212 212 213 213 208 204 199 198 198 201 213 218 216 224 230 231 241 239 244
349 345 344 336 325 316 302 263 227 216 213 211 210 210 209 207 207 209 209 212 215 218 220 222 221 224 224 221 222 222 217 208 206 214 221 222 227 237 241 244 241 243 245
349 349 346 341 332 321 308 284 224 212 206 207 207 210 209 206 208 210 212 216 220 220 221 225 230 231 228 228 231 228 227 224 219 223 229 229 230 235 244 252 255 255 248
345 344 342 338 327 322 312 283 216 205 205 204 207 210 208 206 208 212 217 220 222 222 226 229 231 231 232 232 236 235 234 234 235 236 237 236 236 240 248 259 260 264 258
338 338 336 334 330 326 316 278 221 208 207 205 205 204 204 208 213 218 221 223 228 232 233 234 235 234 235 235 236 238 238 240 242 243 243 243 244 247 255 262 264 266 269
331 333 330 328 327 318 309 272 230 212 211 210 208 208 211 217 221 224 227 228 231 235 236 239 240 239 240 240 239 239 239 241 244 246 247 249 253 256 257 260 268 268 271
328 329 329 326 325 317 302 266 236 216 211 212 212 212 216 222 226 229 230 230 233 236 237 240 242 241 242 242 242 240 241 243 246 249 251 253 259 262 262 267 272 270 272
Height
5894 5894 5895 5896 5897 5899 5900 5901 5902 5903 5904 5905 5905 5906 5906 5906 5906 5906 5906 5906 5906 5906 5905 5905 5905 5905 5905 5905 5904 5904 5904 5904 5904 5903 5903 5903 5903 5903 5903 5903 5903 5903 5904
5894 5895 5896 5897 5898 5899 5901 5902 5903 5904 5905 5906 5906 5907 5907 5907 5907 5908 5907 5907 5907 5906 5906 5906 5906 5906 5906 5905 5905 5905 5905 5905 5904 5904 5904 5904 5904 5904 5904 5905 5905 5905 5905
5895 5896 5897 5897 5898 5900 5901 5903 5904 5905 5906 5907 5907 5908 5908 5908 5908 5908 5908 5908 5907 5907 5907 5906 5906 5906 5906 5906 5906 5905 5905 5905 5905 5905 5905 5905 5905 5906 5906 5906 5906 5906 5907
5896 5896 5897 5898 5899 5900 5901 5903 5904 5905 5906 5907 5908 5908 5909 5909 5909 5909 5909 5908 5908 5908 5907 5907 5907 5906 5907 5906 5906 5906 5906 5906 5906 5906 5906 5906 5906 5907 5907 5907 5907 5908 5908
5896 5896 5897 5898 5899 5901 5902 5903 5904 5905 5906 5907 5908 5909 5909 5909 5909 5909 5909 5909 5909 5908 5908 5907 5907 5907 5907 5907 5906 5906 5906 5906 5907 5907 5907 5907 5907 5908 5908 5908 5909 5909 5909
5896 5896 5897 5898 5899 5900 5902 5903 5904 5905 5907 5907 5908 5909 5909 5910 5910 5910 5909 5909 5909 5908 5908 5908 5907 5907 5907 5907 5907 5907 5907 5907 5907 5907 5907 5908 5908 5908 5908 5909 5910 5910 5910
5896 5896 5897 5898 5899 5900 5901 5903 5904 5905 5906 5907 5908 5909 5909 5910 5910 5910 5910 5909 5909 5908 5908 5908 5907 5907 5907 5907 5907 5907 5907 5907 5907 5908 5908 5908 5909 5909 5909 5910 5910 5911 5911
5896 5896 5897 5898 5899 5899 5900 5902 5903 5905 5906 5907 5908 5909 5909 5909 5910 5910 5910 5909 5909 5908 5908 5908 5908 5908 5907 5907 5908 5908 5908 5908 5908 5908 5908 5909 5909 5910 5910 5910 5911 5911 5912
5895 5896 5897 5898 5898 5899 5900 5901 5902 5904 5905 5906 5907 5908 5909 5909 5909 5909 5909 5909 5909 5908 5908 5908 5908 5908 5908 5908 5908 5908 5908 5908 5908 5908 5909 5909 5910 5910 5910 5911 5911 5911 5912
5895 5895 5896 5896 5897 5898 5898 5900 5901 5902 5904 5905 5906 5907 5908 5908 5909 5909 5909 5908 5908 5908 5908 5908 5908 5908 5908 5908 5907 5907 5908 5908 5908 5908 5909 5909 5910 5910 5910 5911 5911 5911 5912
5895 5895 5895 5895 5895 5896 5897 5898 5899 5901 5902 5904 5905 5906 5907 5908 5908 5908 5908 5908 5908 5908 5908 5908 5908 5908 5908 5908 5907 5907 5908 5908 5908 5908 5909 5909 5910 5910 5910 5910 5911 5911 5912
5894 5893 5893 5894 5893 5894 5895 5896 5898 5899 5901 5902 5904 5905 5906 5907 5907 5907 5907 5907 5907 5907 5907 5907 5907 5907 5908 5907 5907 5908 5908 5907 5908 5908 5909 5909 5909 5910 5910 5910 5911 5911 5911
5893 5892 5891 5891 5891 5892 5893 5894 5895 5897 5899 5901 5903 5904 5905 5906 5906 5906 5906 5907 5907 5907 5907 5907 5907 5907 5908 5907 5907 5908 5908 5908 5908 5908 5908 5909 5909 5910 5910 5910 5910 5911 5911
5892 5891 5890 5889 5889 5890 5890 5891 5893 5895 5897 5899 5901 5903 5904 5905 5905 5906 5906 5906 5906 5906 5906 5907 5907 5907 5907 5907 5907 5907 5907 5908 5908 5908 5908 5909 5909 5909 5910 5910 5910 5910 5911
5892 5890 5888 5887 5887 5887 5888 5889 5891 5893 5895 5897 5899 5901 5902 5904 5904 5905 5905 5905 5906 5906 5906 5906 5906 5907 5907 5907 5907 5907 5907 5907 5908 5908 5908 5908 5908 5909 5909 5909 5909 5910 5910
5891 5889 5887 5885 5885 5885 5886 5887 5889 5891 5893 5895 5897 5899 5901 5902 5903 5904 5904 5905 5905 5905 5905 5906 5906 5906 5906 5907 5907 5907 5907 5907 5908 5908 5908 5908 5908 5908 5909 5909 5909 5909 5909
5890 5888 5886 5885 5884 5884 5884 5885 5886 5889 5891 5893 5895 5897 5899 5901 5902 5903 5904 5904 5904 5905 5905 5905 5906 5906 5906 5906 5907 5907 5907 5907 5907 5908 5908 5908 5908 5908 5908 5908 5908 5908 5908
5889 5887 5885 5883 5883 5882 5882 5883 5884 5886 5889 5891 5893 5895 5897 5899 5900 5901 5903 5903 5904 5904 5904 5905 5905 5906 5906 5906 5906 5907 5907 5907 5907 5907 5908 5908 5908 5908 5908 5908 5908 5908 5908
5888 5885 5884 5882 5881 5881 5881 5881 5882 5884 5886 5888 5890 5893 5895 5897 5898 5900 5901 5902 5903 5903 5904 5904 5905 5905 5906 5906 5906 5906 5906 5907 5907 5907 5907 5907 5907 5907 5907 5907 5907 5907 5907
5887 5885 5883 5881 5880 5879 5879 5879 5881 5882 5884 5886 5888 5891 5893 5895 5897 5898 5899 5900 5901 5902 5903 5904 5904 5905 5905 5906 5906 5906 5906 5906 5906 5907 5907 5907 5907 5907 5907 5907 5906 5906 5906
5886 5884 5882 5880 5879 5878 5878 5878 5879 5880 5882 5884 5886 5889 5891 5893 5895 5896 5897 5899 5900 5901 5902 5903 5903 5904 5904 5905 5905 5906 5906 5906 5906 5906 5906 5906 5906 5906 5906 5906 5906 5905 5905
5885 5884 5882 5880 5878 5877 5876 5876 5877 5878 5880 5882 5884 5886 5889 5891 5893 5895 5896 5897 5899 5899 5900 5901 5902 5902 5903 5904 5904 5905 5905 5906 5905 5906 5905 5905 5905 5905 5905 5905 5905 5904 5904
5885 5883 5881 5879 5877 5876 5875 5875 5876 5877 5878 5880 5882 5884 5886 5889 5890 5892 5894 5895 5897 5898 5899 5899 5900 5901 5901 5902 5903 5903 5904 5904 5904 5905 5904 5904 5904 5904 5904 5904 5904 5903 5903
5884 5882 5880 5878 5876 5875 5874 5873 5874 5875 5877 5878 5880 5882 5884 5886 5888 5890 5891 5893 5894 5895 5896 5897 5898 5898 5899 5900 5901 5901 5902 5902 5903 5903 5903 5903 5903 5903 5903 5903 5902 5902 5901
5882 5881 5879 5877 5875 5874 5873 5872 5872 5874 5875 5877 5878 5880 5882 5884 5886 5887 5889 5890 5892 5893 5894 5894 5895 5896 5896 5897 5898 5899 5899 5900 5900 5901 5901 5901 5901 5901 5901 5901 5901 5900 5900
5881 5879 5878 5876 5874 5873 5871 5871 5871 5872 5873 5875 5877 5878 5880 5881 5883 5885 5886 5888 5889 5890 5891 5892 5893 5893 5894 5894 5895 5896 5897 5898 5898 5898 5899 5899 5899 5899 5899 5899 5898 5898 5897